Regional Weather Roundup
Issued by NWS Burlington, VT

Current Version | Previous Version | Graphics & Text | Print | Product List | Glossary Off
Versions: 1 2 3 4 5 6 7 8 9 10 11 12 13 14 15 16 17 18 19 20 21 22 23 24 25 26 27 28 29 30 31 32 33 34 35 36 37 38 39 40 41 42 43 44 45 46 47 48 49 50

739
ASUS41 KBTV 251010
RWRBTV
VERMONT REGIONAL WEATHER ROUNDUP
NATIONAL WEATHER SERVICE BURLINGTON VT
600 AM EDT MON SEP 25 2017

NOTE: "FAIR" INDICATES FEW OR NO CLOUDS BELOW 12,000 FEET WITH NO
SIGNIFICANT WEATHER AND/OR OBSTRUCTIONS TO VISIBILITY.

* THESE REPORTS ARE NOT UNDER NWS QUALITY CONTROL AND/OR DO NOT
  REPORT WEATHER SUCH AS PRECIPITATION AND FOG.

VTZ001>019-251100-
_____VERMONT_____


CITY           SKY/WX    TMP DP  RH WIND       PRES   REMARKS
BURLINGTON     CLEAR     67  66  97 CALM      30.09R
MONTPELIER     FOG       63  63 100 CALM      30.16R VSB 1/4
MORRISVILLE    FOG       62  62 100 CALM      30.13R VSB 1/4
ST. JOHNSBURY*   N/A     63  63 100 MISG      30.10R
LYNDONVILLE*   FOG       63  62  97 CALM      30.15R VSB<1/4
MIDDLEBURY*    FOG       63  62  99 CALM      30.10R VSB 1/4
RUTLAND*       CLEAR     63  62  97 SE6       30.12R
SPRINGFIELD    FOG       61  60  97 CALM      30.11S VSB 1/4
HIGHGATE*      FAIR      65  65 100 S3        30.08R FOG
NEWPORT*       FOG       62  62 100 CALM      30.12R VSB 3/4
BENNINGTON     FOG       61  59  93 SE3       30.10S VSB 1
SUTTON*          N/A     64 N/A N/A MISG        N/A

_____LAKE CHAMPLAIN_____


CITY           SKY/WX    TMP DP  RH WIND       PRES   REMARKS
BURTON ISLAND*   N/A     72  68  88 SW5         N/A
COLCHESTER RF*   N/A     70  70 100 S8          N/A
DIAMOND ISL*     N/A     68  66  94 SE3         N/A

$$

NYZ007-026>031-035-052-083-087-251100-
_____NORTHERN NEW YORK_____


CITY           SKY/WX    TMP DP  RH WIND       PRES   REMARKS
PLATTSBURGH    CLEAR     64  62  93 CALM      30.07R
SARANAC LAKE   FOG       52  52 100 CALM      30.14S VSB 1/4
MASSENA        FOG       62  61  96 CALM      30.09R VSB 1
OGDENSBURG*    FAIR      62  61  97 CALM      30.08R FOG
POTSDAM*         N/A    N/A N/A N/A S3        30.09R FOG
WATERTOWN      CLEAR     59  59 100 E3        30.08R FOG
FT DRUM        CLEAR     65  63  93 SE3       30.09S
ALBANY         PTCLDY    65  63  93 CALM      30.08S
GLENS FALLS    FOG       59  59 100 CALM      30.08S VSB 1/4

$$
NHZ002-005-011-251100-
_____NEW HAMPSHIRE_____


CITY           SKY/WX    TMP DP  RH WIND       PRES   REMARKS
LEBANON        FOG       66  65  96 CALM      30.10S VSB 1/4
KEENE          FOG       63  61  94 CALM      30.10R VSB 1/4
MT WASHINGTON  PTCLDY    57  54  88 NW12        N/A
PLYMOUTH       FOG       60  59  96 CALM      30.09R VSB 1/2
WHITEFIELD     FOG       57  54  89 CALM      30.12S VSB 1/4

$$

_____REGIONAL QUEBEC LOCATIONS_____


CITY           SKY/WX    TMP DP  RH WIND       PRES   REMARKS
MONTREAL       PTCLDY    70  68  94 SW6       30.05R
QUEBEC CITY    LGT RAIN  59  57  94 N5        30.07R
SHERBROOKE     FOG       61  61 100 VRB2      30.09R VSB 5/8

_____REGIONAL ONTARIO LOCATIONS_____


CITY           SKY/WX    TMP DP  RH WIND       PRES   REMARKS
OTTAWA         CLEAR     64  64 100 SW3       30.07R

______KEY______
VSB  - VISIBILITY IN MILES
WCI  - WIND CHILL INDEX
HX   - HEAT INDEX
$$
NNNN




USA.gov is the U.S. government's official web portal to all federal, state and local government web resources and services.